FW3611 Weather Reports


Display with metric or nautical units.
time (UTC)temp
F
wind
direction
speed
MPH
gust
MPH
rain 1hr
in
rain 24hr
in
rain mn
in
humidity
%
barometer
mb
20260506123703 67 188 3.0 8.0 0.00 0.00 0.00 78 1016.6
20260506122707 67 189 3.0 7.0 0.00 0.00 0.00 79 1016.8
20260506122158 66 196 3.0 6.0 0.00 0.00 0.00 80 1016.8
20260506120657 64 182 1.0 4.0 0.00 0.00 0.00 86 1016.6
20260506120212 63 182 0.0 2.0 0.00 0.00 0.00 87 1016.6
20260506115658 63 182 0.0 2.0 0.00 0.00 0.00 88 1016.4
20260506115158 62 182 0.0 0.0 0.00 0.00 0.00 88 1016.4
20260506114657 62 182 0.0 0.0 0.00 0.00 0.00 89 1016.4
20260506113657 61 182 0.0 0.0 0.00 0.00 0.00 90 1016.2
20260506113157 61 182 0.0 0.0 0.00 0.00 0.00 90 1016.2
20260506112658 61 182 0.0 0.0 0.00 0.00 0.00 90 1016.2
20260506112157 60 182 0.0 0.0 0.00 0.00 0.00 90 1016.1
20260506111657 60 182 0.0 0.0 0.00 0.00 0.00 90 1016.1
20260506110659 59 182 0.0 0.0 0.00 0.00 0.00 89 1016.2
20260506110159 59 182 0.0 0.0 0.00 0.00 0.00 89 1016.1
20260506105156 59 182 0.0 0.0 0.00 0.00 0.00 88 1016.0
20260506104658 60 182 0.0 0.0 0.00 0.00 0.00 88 1015.9
20260506104155 60 182 0.0 0.0 0.00 0.00 0.00 88 1015.7
20260506103151 60 182 0.0 0.0 0.00 0.00 0.00 87 1015.6
20260506102147 60 182 0.0 0.0 0.00 0.00 0.00 86 1015.5
20260506101651 60 182 0.0 0.0 0.00 0.00 0.00 86 1015.5
20260506101152 60 182 0.0 0.0 0.00 0.00 0.00 86 1015.5
20260506100651 60 182 0.0 0.0 0.00 0.00 0.00 86 1015.5
20260506100200 61 182 0.0 0.0 0.00 0.00 0.00 85 1015.6
20260506095637 61 182 0.0 0.0 0.00 0.00 0.00 85 1015.6
20260506095138 61 182 0.0 0.0 0.00 0.00 0.00 85 1015.6
20260506094636 61 182 0.0 0.0 0.00 0.00 0.00 84 1015.6
20260506094135 61 182 0.0 0.0 0.00 0.00 0.00 84 1015.7
20260506093634 62 182 0.0 0.0 0.00 0.00 0.00 84 1015.7
20260506092137 62 182 0.0 1.0 0.00 0.00 0.00 84 1015.6
20260506091630 62 182 0.0 1.0 0.00 0.00 0.00 84 1015.6
20260506091130 62 182 0.0 1.0 0.00 0.00 0.00 84 1015.6
20260506090627 62 182 0.0 1.0 0.00 0.00 0.00 84 1015.6
20260506085623 62 182 0.0 0.0 0.00 0.00 0.00 84 1015.6
20260506085123 62 182 0.0 0.0 0.00 0.00 0.00 83 1015.6
20260506084621 62 182 0.0 0.0 0.00 0.00 0.00 83 1015.7
20260506084119 63 182 0.0 0.0 0.00 0.00 0.00 83 1015.6
20260506083624 63 182 0.0 0.0 0.00 0.00 0.00 83 1015.6
20260506083118 63 182 0.0 0.0 0.00 0.00 0.00 82 1015.6
20260506082614 63 182 0.0 0.0 0.00 0.00 0.00 82 1015.5
20260506082118 63 182 0.0 0.0 0.00 0.00 0.00 82 1015.6
20260506081614 64 182 0.0 0.0 0.00 0.00 0.00 81 1015.7
20260506080611 64 182 0.0 0.0 0.00 0.00 0.00 80 1015.8
20260506073041 65 182 1.0 3.0 0.00 0.00 0.00 78 1015.6
20260506072035 65 183 1.0 4.0 0.00 0.00 0.00 77 1015.5
20260506071535 65 184 1.0 5.0 0.00 0.00 0.00 77 1015.5
20260506071040 66 184 1.0 5.0 0.00 0.00 0.00 77 1015.5
20260506070533 66 183 2.0 4.0 0.00 0.00 0.00 77 1015.5
20260506062032 66 188 1.0 7.0 0.00 0.00 0.00 78 1015.9
20260506061533 66 173 1.0 4.0 0.00 0.00 0.00 78 1015.7
20260506061040 66 181 1.0 7.0 0.00 0.00 0.00 77 1015.8
20260506060522 66 181 2.0 7.0 0.00 0.00 0.00 78 1015.8
20260506051005 66 182 2.0 5.0 0.00 0.00 0.00 78 1016.4
20260506050507 66 174 1.0 5.0 0.00 0.00 0.00 77 1016.4
20260506044458 67 176 1.0 5.0 0.00 0.00 0.00 77 1016.5
20260506043952 67 176 1.0 5.0 0.00 0.00 0.00 77 1016.4
20260506043446 67 152 1.0 6.0 0.00 0.00 0.00 76 1016.4
20260506042445 67 162 1.0 6.0 0.00 0.00 0.00 76 1016.4
20260506041448 67 168 1.0 4.0 0.00 0.00 0.00 76 1016.4
20260506040945 67 158 1.0 5.0 0.00 0.00 0.00 75 1016.6
20260506035941 67 158 1.0 7.0 0.00 0.00 0.00 75 1016.6
20260506035444 67 171 1.0 2.0 0.00 0.00 0.00 75 1016.6
20260506034953 67 171 1.0 3.0 0.00 0.00 0.00 75 1016.5
20260506034442 67 171 1.0 5.0 0.00 0.00 0.00 74 1016.5
20260506033944 68 158 1.0 5.0 0.00 0.00 0.00 74 1016.6
20260506033437 68 121 1.0 3.0 0.00 0.00 0.00 73 1016.7
20260506032933 68 121 1.0 3.0 0.00 0.00 0.00 73 1016.8
20260506032431 68 121 1.0 3.0 0.00 0.00 0.00 73 1016.7
20260506031929 68 121 0.0 6.0 0.00 0.00 0.00 73 1016.6
20260506030927 68 153 1.0 4.0 0.00 0.00 0.00 71 1016.6
20260506030427 69 146 1.0 3.0 0.00 0.00 0.00 71 1016.6
20260506025934 69 144 1.0 5.0 0.00 0.00 0.00 71 1016.6
20260506024943 69 194 1.0 4.0 0.00 0.00 0.00 70 1016.8
20260506024429 69 108 1.0 4.0 0.00 0.00 0.00 70 1016.7
20260506023925 69 166 1.0 4.0 0.00 0.00 0.00 70 1016.7
20260506023426 69 120 1.0 3.0 0.00 0.00 0.00 69 1016.7
20260506022925 69 121 1.0 4.0 0.00 0.00 0.00 69 1016.6
20260506022425 70 173 1.0 4.0 0.00 0.00 0.00 68 1016.5
20260506020417 70 146 1.0 5.0 0.00 0.00 0.00 67 1016.3
20260506015917 70 166 1.0 5.0 0.00 0.00 0.00 67 1016.3
20260506015417 71 160 1.0 5.0 0.00 0.00 0.00 66 1016.2
20260506014925 71 139 1.0 5.0 0.00 0.00 0.00 66 1016.2
20260506014415 71 148 1.0 5.0 0.00 0.00 0.00 66 1016.1
20260506013916 71 161 1.0 4.0 0.00 0.00 0.00 65 1016.0
20260506012914 72 131 1.0 6.0 0.00 0.00 0.00 65 1015.9
20260506012413 72 148 1.0 5.0 0.00 0.00 0.00 64 1015.8
20260506011922 72 154 1.0 5.0 0.00 0.00 0.00 64 1015.6
20260506011418 72 145 1.0 5.0 0.00 0.00 0.00 63 1015.5
20260506010409 73 157 1.0 6.0 0.00 0.00 0.00 63 1015.5
20260506005407 73 148 1.0 6.0 0.00 0.00 0.00 61 1015.5
20260506004906 74 151 1.0 6.0 0.00 0.00 0.00 61 1015.4
20260506004408 74 128 2.0 7.0 0.00 0.00 0.00 61 1015.4
20260506003905 74 124 2.0 7.0 0.00 0.00 0.00 60 1015.4
20260506003406 75 145 2.0 8.0 0.00 0.00 0.00 59 1015.2
20260506001904 76 176 2.0 11.0 0.00 0.00 0.00 56 1014.9
20260506001412 76 144 2.0 6.0 0.00 0.00 0.00 55 1014.8
20260506000908 77 162 2.0 11.0 0.00 0.00 0.00 54 1014.7
20260506000405 77 69 2.0 11.0 0.00 0.00 0.00 53 1014.6
20260505235905 78 69 2.0 6.0 0.00 0.00 0.00 52 1014.6
20260505235404 78 72 2.0 6.0 0.00 0.00 0.00 52 1014.6
20260505234903 79 157 2.0 6.0 0.00 0.00 0.00 51 1014.5
20260505234403 79 67 2.0 7.0 0.00 0.00 0.00 51 1014.5
20260505233904 80 167 2.0 7.0 0.00 0.00 0.00 51 1014.5
20260505232904 81 145 2.0 7.0 0.00 0.00 0.00 49 1014.4
20260505232400 81 69 2.0 7.0 0.00 0.00 0.00 48 1014.5
20260505231857 82 161 2.0 7.0 0.00 0.00 0.00 47 1014.4
20260505231401 83 136 1.0 4.0 0.00 0.00 0.00 44 1014.4
20260505230857 83 127 1.0 4.0 0.00 0.00 0.00 41 1014.4
20260505230357 83 182 2.0 6.0 0.00 0.00 0.00 41 1014.5
20260505225358 85 177 2.0 5.0 0.00 0.00 0.00 39 1014.6
20260505224855 85 176 2.0 6.0 0.00 0.00 0.00 40 1014.5
20260505223855 85 103 2.0 6.0 0.00 0.00 0.00 39 1014.5
20260505223353 85 157 2.0 6.0 0.00 0.00 0.00 38 1014.6
20260505222854 85 130 2.0 5.0 0.00 0.00 0.00 38 1014.5
20260505221848 85 183 3.0 7.0 0.00 0.00 0.00 38 1014.5
20260505221341 85 171 4.0 8.0 0.00 0.00 0.00 39 1014.4
20260505220335 85 197 5.0 11.0 0.00 0.00 0.00 38 1014.2
20260505215835 85 114 5.0 11.0 0.00 0.00 0.00 37 1014.3
20260505214834 85 173 4.0 10.0 0.00 0.00 0.00 39 1014.5
20260505214331 85 135 5.0 11.0 0.00 0.00 0.00 39 1014.4
20260505213829 85 163 5.0 11.0 0.00 0.00 0.00 37 1014.5
20260505213329 85 160 3.0 8.0 0.00 0.00 0.00 40 1014.4
20260505212329 85 21 3.0 7.0 0.00 0.00 0.00 37 1014.5
20260505211836 85 178 2.0 7.0 0.00 0.00 0.00 37 1014.5
20260505211334 85 237 4.0 10.0 0.00 0.00 0.00 37 1014.5
20260505210827 85 185 4.0 10.0 0.00 0.00 0.00 36 1014.5
20260505210325 85 173 3.0 10.0 0.00 0.00 0.00 39 1014.6
20260505205825 85 114 4.0 13.0 0.00 0.00 0.00 39 1014.7
20260505204826 85 142 3.0 16.0 0.00 0.00 0.00 38 1014.7
20260505204326 84 230 3.0 9.0 0.00 0.00 0.00 37 1014.7
20260505203825 86 164 3.0 7.0 0.00 0.00 0.00 35 1014.9
20260505203326 85 105 3.0 8.0 0.00 0.00 0.00 39 1014.9
20260505202325 85 112 4.0 14.0 0.00 0.00 0.00 38 1014.9
20260505201325 84 116 2.0 6.0 0.00 0.00 0.00 40 1015.0
20260505200824 84 61 2.0 6.0 0.00 0.00 0.00 40 1015.1
20260505200325 84 58 1.0 5.0 0.00 0.00 0.00 38 1015.1
20260505195825 83 141 3.0 10.0 0.00 0.00 0.00 40 1015.3
20260505195327 83 144 3.0 12.0 0.00 0.00 0.00 40 1015.3
20260505194817 83 171 4.0 12.0 0.00 0.00 0.00 39 1015.4
20260505194317 84 174 5.0 13.0 0.00 0.00 0.00 38 1015.6
20260505193818 84 126 4.0 13.0 0.00 0.00 0.00 38 1015.7
20260505193317 84 148 3.0 9.0 0.00 0.00 0.00 40 1015.8
20260505192819 83 198 3.0 9.0 0.00 0.00 0.00 41 1016.0
20260505191816 82 176 2.0 6.0 0.00 0.00 0.00 41 1016.2
20260505191317 83 172 3.0 9.0 0.00 0.00 0.00 39 1016.2
20260505190813 84 110 3.0 9.0 0.00 0.00 0.00 42 1016.3
20260505190312 84 164 2.0 8.0 0.00 0.00 0.00 42 1016.4
20260505185815 83 87 2.0 4.0 0.00 0.00 0.00 41 1016.3
20260505184313 82 224 4.0 9.0 0.00 0.00 0.00 39 1016.3
20260505183814 82 225 5.0 10.0 0.00 0.00 0.00 42 1016.4
20260505183312 82 181 5.0 10.0 0.00 0.00 0.00 41 1016.5
20260505182809 82 189 3.0 10.0 0.00 0.00 0.00 42 1016.4
20260505182307 83 83 2.0 10.0 0.00 0.00 0.00 44 1016.5
20260505181806 82 133 2.0 7.0 0.00 0.00 0.00 43 1016.7
20260505181305 82 130 3.0 9.0 0.00 0.00 0.00 41 1016.7
20260505180804 82 193 3.0 9.0 0.00 0.00 0.00 41 1016.7
20260505180305 81 150 2.0 7.0 0.00 0.00 0.00 43 1016.8
20260505175818 81 110 3.0 6.0 0.00 0.00 0.00 46 1016.9
20260505174752 82 151 2.0 9.0 0.00 0.00 0.00 43 1016.9
20260505174252 83 218 2.0 7.0 0.00 0.00 0.00 42 1016.9
20260505172750 82 164 5.0 13.0 0.00 0.00 0.00 44 1017.0
20260505172252 81 216 5.0 14.0 0.00 0.00 0.00 43 1017.0
20260505171240 82 73 3.0 10.0 0.00 0.00 0.00 46 1017.0
20260505170803 82 85 3.0 10.0 0.00 0.00 0.00 46 1016.9
20260505170240 82 191 3.0 7.0 0.00 0.00 0.00 47 1017.0
20260505165241 81 117 4.0 10.0 0.00 0.00 0.00 48 1017.2
20260505164738 81 144 4.0 8.0 0.00 0.00 0.00 47 1017.3
20260505164233 80 110 3.0 8.0 0.00 0.00 0.00 53 1017.3
20260505163732 79 165 3.0 11.0 0.00 0.00 0.00 50 1017.5
20260505162732 79 165 3.0 9.0 0.00 0.00 0.00 49 1017.4
20260505162230 79 166 2.0 9.0 0.00 0.00 0.00 54 1017.5
20260505161731 78 162 3.0 10.0 0.00 0.00 0.00 58 1017.6
20260505161231 78 169 6.0 10.0 0.00 0.00 0.00 55 1017.6
20260505160730 79 200 6.0 12.0 0.00 0.00 0.00 55 1017.6
20260505160232 78 168 5.0 12.0 0.00 0.00 0.00 55 1017.6
20260505153235 77 188 4.0 10.0 0.00 0.00 0.00 57 1017.9
20260505152235 77 154 5.0 10.0 0.00 0.00 0.00 60 1018.0
20260505151733 77 185 4.0 8.0 0.00 0.00 0.00 58 1018.0
20260505151229 77 175 5.0 10.0 0.00 0.00 0.00 61 1017.9
20260505150230 76 191 4.0 9.0 0.00 0.00 0.00 61 1017.9
20260505140214 74 167 3.0 9.0 0.00 0.00 0.00 64 1017.8
20260505130217 67 174 3.0 7.0 0.00 0.00 0.00 76 1017.7
20260505124705 66 125 2.0 4.0 0.00 0.00 0.00 80 1017.7
20260505124211 65 158 2.0 4.0 0.00 0.00 0.00 82 1017.6